Weather observations for the past three days for
Springfield, Hartness State Springfield Airport
Imperial (Metric)
Date Time (edt) Wind (mph) Vis. (mi.) Weather Sky Cond. Temperature (ºF) Relative Humidity Wind Chill (°F) Heat Index (°F) Pressure Precipitation (in)
Air Dwpt 6 hour altimeter (in) sea level (mb) 1 hr 3 hr 6 hr
Max. Min.
15 21:54 Vrbl 3 10.00 Fair CLR 59 42.1 54% 30.13 1020.4
15 20:54 N 5 10.00 Fair CLR 63 41 45% 30.11 1019.7
15 19:54 N 7 10.00 Fair CLR 66 42.1 73 66 42% 30.08 1018.6
15 18:54 Vrbl 6 10.00 Fair CLR 69.1 43 39% 30.05 1017.6
15 17:54 N 5 10.00 A Few Clouds FEW065 70 43 38% 30.03 1017.0
15 16:54 NW 12 10.00 A Few Clouds FEW065 71.1 42.1 35% 30.03 1016.9
15 15:54 Vrbl 5 G 17 10.00 A Few Clouds FEW065 72 43 35% 30.02 1016.4
15 14:54 NW 8 G 21 10.00 Fair CLR 71.1 42.1 35% 30.02 1016.4
15 13:54 NW 13 G 22 10.00 Partly Cloudy SCT065 71.1 41 72 64.9 34% 30.02 1016.5
15 12:54 N 8 G 25 10.00 A Few Clouds FEW060 71.1 39.9 32% 30.02 1016.4
15 11:54 NE 10 G 24 10.00 A Few Clouds FEW060 70 39.9 34% 30.01 1016.2
15 10:54 NW 10 G 22 10.00 A Few Clouds FEW055 68 39.9 36% 30.01 1016.0
15 09:54 N 10 G 16 10.00 A Few Clouds FEW050 66.9 43 42% 30.01 1016.1
15 08:54 N 12 G 18 10.00 Fair CLR 64.9 43 45% 30.01 1016.2
15 07:54 N 8 G 21 10.00 Fair CLR 64.9 44.1 64.9 59 47% 30.01 1016.2
15 06:54 Calm 10.00 Fair CLR 63 50 63% 30 1015.6
15 05:54 E 3 10.00 Partly Cloudy SCT090 60.1 51.1 72% 29.97 1014.8
15 04:54 Calm 10.00 Overcast SCT050 OVC080 60.1 52 75% 29.95 1013.9
15 03:54 Calm 10.00 Overcast OVC080 61 52 72% 29.92 1013.1
15 02:54 W 3 10.00 Mostly Cloudy BKN070 61 52 72% 29.91 1012.8
15 01:54 Vrbl 3 10.00 A Few Clouds FEW075 63 53.1 73 63 70% 29.9 1012.3
15 00:54 Calm 10.00 Overcast BKN060 OVC070 68 52 57% 29.9 1012.4
14 23:54 Calm 10.00 Mostly Cloudy BKN060 69.1 53.1 57% 29.9 1012.4
14 22:54 Vrbl 5 10.00 Mostly Cloudy BKN055 71.1 53.1 53% 29.89 1012.0
14 21:54 NE 5 10.00 Fair CLR 72 54 53% 29.88 1011.7
14 20:54 N 5 10.00 Mostly Cloudy FEW060 SCT070 BKN110 73 57 57% 29.84 1010.3
14 19:54 NW 3 10.00 A Few Clouds FEW100 73 63 84 73 71% 29.81 1009.4
14 18:54 W 3 10.00 Fair CLR 78.1 57 48% 79 29.8 1009.1
14 17:54 SW 7 10.00 A Few Clouds FEW080 80.1 55 42% 80 29.8 1008.9
14 16:54 W 9 G 18 10.00 Fair CLR 82.9 55.9 40% 82 29.8 1008.8
14 15:54 SW 9 G 17 10.00 Fair CLR 82 57.9 44% 82 29.8 1008.7
14 14:54 SW 7 10.00 Fair CLR 80.1 57.9 47% 81 29.81 1009.3
14 13:54 SW 9 10.00 Fair CLR 79 62.1 79 63 56% 80 29.82 1009.7 0.01
14 12:54 S 9 10.00 Fair CLR 73 64.9 76% 29.84 1010.2
14 11:54 S 7 10.00 Fair CLR 70 64 82% 29.85 1010.8
14 10:54 Calm 10.00 Mostly Cloudy BKN011 68 63 84% 29.86 1011.0 0.01
14 09:54 S 5 10.00 Partly Cloudy SCT010 66.9 62.1 84% 29.85 1010.8
14 08:54 Calm 9.00 Light Rain SCT036 BKN044 BKN055 64.9 60.1 84% 29.85 1010.7 0.01
14 07:54 Calm 7.00 Mostly Cloudy BKN090 BKN110 63 60.1 66 59 90% 29.86 1010.9 0.01 0.03
14 06:54 Calm 3.00 Rain Fog/Mist FEW060 OVC095 61 57.9 90% 29.84 1010.2 0.02
14 05:54 Calm 10.00 Mostly Cloudy BKN085 BKN120 61 57 87% 29.85 1010.6
14 04:54 Calm 10.00 Fair CLR 60.1 55.9 86% 29.85 1010.4
14 03:54 SW 5 10.00 Fair CLR 63 55.9 78% 29.83 1009.9
14 02:54 SW 3 10.00 Fair CLR 62.1 55.9 80% 29.84 1010.2
14 01:54 Calm 10.00 Fair CLR 61 57 79 61 87% 29.86 1010.8
14 00:54 Calm 10.00 Fair CLR 63 57.9 84% 29.87 1011.1
13 23:54 N 3 10.00 Fair CLR 64 57 78% 29.88 1011.7
13 22:54 NW 3 10.00 Fair CLR 66 57.9 75% 29.9 1012.2
13 21:54 NW 3 10.00 Fair CLR 68 59 73% 29.9 1012.2
13 20:54 Calm 10.00 Fair CLR 71.1 60.1 68% 29.89 1011.8
13 19:54 S 5 10.00 Mostly Cloudy BKN100 79 55.9 84.9 79 45% 80 29.88 1011.8
13 18:54 SW 5 10.00 A Few Clouds FEW080 82 54 38% 81 29.88 1011.7
13 17:54 W 10 10.00 Overcast OVC080 84.9 53.1 33% 83 29.9 1012.3
13 16:54 W 10 G 16 10.00 Fair CLR 84.9 51.1 31% 83 29.89 1011.9
13 15:54 S 9 G 17 10.00 Fair CLR 84.9 48.9 29% 83 29.9 1012.2
13 14:54 SW 9 10.00 Fair CLR 84 48.9 30% 82 29.93 1013.2
13 13:54 SE 9 10.00 Fair CLR 82 55 82 55.9 40% 81 29.94 1013.5
13 12:54 Calm 10.00 Fair CLR 80.1 54 41% 80 29.96 1014.2
13 11:54 Vrbl 3 10.00 Fair CLR 75.9 53.1 45% 78 29.97 1014.7
13 10:54 Calm 10.00 Fair CLR 73.9 54 50% 29.99 1015.4
13 09:54 Calm 10.00 Fair CLR 70 55 59% 30 1015.9
13 08:54 Calm 10.00 Fair CLR 64 53.1 68% 30.02 1016.6
13 07:54 Calm 10.00 Fair CLR 55.9 52 55.9 48.9 87% 30.02 1016.7
13 06:54 Calm 0.25 Fog VV002 50 48.9 96% 30.03 1017.0
13 05:54 Calm 0.25 Fog VV002 50 48 93% 30.02 1016.7
13 04:54 Calm 1.25 Fog/Mist BKN002 48.9 46.9 93% 30 1015.9
13 03:54 W 3 7.00 Mostly Cloudy BKN002 51.1 48.9 92% 29.99 1015.5
13 02:54 Calm 10.00 Fair CLR 52 48.9 89% 29.99 1015.4
13 01:54 Calm 10.00 Fair CLR 53.1 50 70 53.1 89% 29.99 1015.6
13 00:54 Calm 10.00 Fair CLR 55 51.1 87% 29.99 1015.5
12 23:54 Calm 10.00 A Few Clouds FEW055 57 52 83% 30 1015.9
12 22:54 Calm 10.00 Mostly Cloudy BKN060 61 53.1 75% 30 1016.0
Date Time (edt) Wind (mph) Vis. (mi.) Weather Sky Cond. Air Dwpt Max. Min. Relative Humidity Wind Chill (°F) Heat Index (°F) altimeter (in) sea level (mb) 1 hr 3 hr 6 hr
6 hour
Temperature (ºF) Pressure Precipitation (in)